Theta_e
313 313 313 315 317 315 313 307 308 309 313 316 314 318 318 319 324 325 325 325 328 329 330 329 330 326 325 324 326 321 322 326 325 325 324 318 317 317 319 324 326 328 328 329 330
312 312 313 314 315 316 315 310 309 308 313 315 314 316 319 320 322 323 322 325 325 326 328 330 326 325 323 324 324 326 327 325 319 321 321 316 316 316 321 324 325 330 331 328 331
313 311 311 313 313 314 315 311 310 309 311 314 315 316 319 321 322 321 320 324 324 322 325 329 326 324 325 323 324 324 331 324 326 322 322 319 317 315 319 322 323 326 328 327 328
314 313 311 310 312 313 314 313 311 311 311 314 314 316 319 320 322 319 320 321 323 323 326 326 325 327 324 328 323 327 326 326 327 322 323 323 315 312 316 319 317 320 327 327 328
314 314 312 310 309 311 311 312 313 312 312 314 313 316 319 320 320 320 320 321 322 323 326 324 327 328 329 324 324 325 327 326 326 322 322 322 322 317 314 313 313 321 327 327 328
314 313 313 311 309 310 310 310 312 311 312 314 313 315 317 321 318 319 319 321 322 323 324 325 325 323 326 324 325 323 325 325 325 325 324 325 324 313 313 310 317 327 329 326 328
316 314 313 312 310 307 309 308 308 307 311 312 314 314 316 317 318 318 319 320 322 323 322 323 323 325 322 325 323 325 328 327 326 327 327 321 327 315 313 310 313 324 328 327 326
312 315 313 313 311 308 308 309 308 309 310 311 314 314 314 313 315 318 319 322 322 323 321 323 323 322 324 320 324 328 327 330 327 328 327 326 331 322 317 310 309 314 324 328 328
310 312 315 312 312 309 307 307 307 310 312 312 314 313 315 313 315 315 319 320 319 318 318 320 322 323 321 326 327 327 330 327 327 328 328 325 326 323 317 313 310 308 317 326 329
309 312 315 312 312 310 308 307 308 310 311 311 313 314 312 314 316 316 318 319 319 319 320 321 322 326 325 327 332 330 331 325 327 328 328 326 324 322 322 319 313 310 306 320 327
308 310 314 314 312 310 309 309 309 310 311 313 314 312 312 315 316 316 318 319 319 320 324 322 325 324 324 325 325 323 326 328 326 326 328 328 328 327 325 322 317 313 310 307 312
307 309 311 314 312 311 307 307 306 307 310 310 312 311 315 316 316 316 317 318 321 324 322 324 324 323 320 321 325 327 326 326 325 326 327 326 328 326 326 325 324 323 318 311 309
307 309 310 314 312 311 308 307 306 309 307 310 312 314 314 315 316 318 317 317 319 321 323 324 322 320 322 324 326 324 328 327 326 325 326 329 329 327 326 324 324 322 320 319 316
307 308 310 313 313 311 308 307 307 305 298 306 312 313 313 313 314 316 317 316 318 320 320 323 319 320 322 324 324 325 323 325 326 328 331 327 332 325 324 326 324 324 322 318 316
306 306 310 312 312 310 307 307 308 299 293 299 310 311 311 314 314 317 317 318 320 318 318 321 323 321 323 322 324 326 324 326 326 329 327 327 329 325 324 325 323 323 322 320 317
305 306 310 314 310 309 307 307 304 299 294 300 311 313 314 312 314 315 318 316 317 318 316 316 317 320 322 321 321 323 324 325 326 328 330 327 328 326 326 322 321 321 321 321 320
305 305 305 312 310 307 307 305 305 301 295 308 308 310 312 313 315 315 318 320 318 319 320 319 318 319 319 321 322 324 326 327 327 326 328 321 326 324 323 315 315 317 315 314 313
302 304 306 306 308 307 306 307 305 297 295 305 307 309 310 311 311 314 315 319 317 318 318 321 321 320 320 321 322 324 324 327 328 326 325 318 328 324 319 319 320 317 316 315 308
301 304 304 306 307 307 305 308 304 296 296 309 308 308 308 310 310 313 315 316 317 316 321 321 321 318 319 319 321 325 327 321 322 311 318 318 313 314 312 313 311 311 310 313 312
302 303 304 305 306 307 305 307 298 296 304 307 308 307 308 309 311 311 315 314 314 314 315 320 324 319 319 317 319 323 320 324 320 326 322 319 316 320 315 315 314 315 311 308 307
301 300 302 305 304 306 306 306 298 294 304 304 304 310 307 310 310 312 311 313 313 314 315 317 319 319 319 321 322 321 323 322 322 321 321 320 318 309 314 314 313 309 307 307 306
295 302 302 302 303 302 306 300 300 302 302 303 302 305 307 307 309 311 312 312 312 314 319 318 315 320 320 315 318 320 321 322 324 320 315 313 319 311 307 307 306 305 303 302 301
297 300 301 302 304 305 304 302 302 303 303 304 306 307 308 311 310 310 311 311 312 315 317 318 314 319 319 316 315 321 321 321 320 316 319 320 320 312 307 305 303 302 302 302 300
299 302 300 300 298 305 303 303 303 301 302 302 303 304 307 311 306 311 312 312 311 313 315 316 315 318 318 317 318 321 321 321 322 324 322 320 319 316 314 310 311 306 302 300 300
297 300 300 302 302 303 302 302 304 304 301 300 303 305 306 311 307 311 311 310 308 312 315 316 316 317 316 312 313 315 320 320 322 322 324 322 320 317 316 314 315 308 303 301 301
299 300 299 301 302 303 303 301 303 301 301 302 303 303 300 307 308 307 309 309 311 311 316 311 314 311 314 315 315 316 313 318 320 321 322 321 321 318 316 315 315 311 304 302 301
295 297 299 303 303 303 300 301 301 300 300 298 300 301 301 300 299 302 301 302 305 310 314 311 311 313 314 312 313 316 315 314 316 318 320 323 320 318 317 317 315 315 312 304 302
Wind_Speed
23 22 21 19 18 17 14 13 12 12 13 11 7 7 6 9 9 11 5 9 11 9 2 6 5 3 5 4 1 4 3 3 4 0 5 7 6 2 3 3 3 5 3 3 17
27 24 22 21 20 18 17 13 11 11 11 12 10 7 5 7 11 10 15 13 13 7 8 7 3 3 3 3 3 5 4 5 2 4 5 8 5 5 2 2 4 2 2 7 27
30 27 25 22 23 19 18 15 12 10 11 11 11 7 6 8 4 7 22 21 16 9 9 8 5 5 2 1 4 4 7 9 6 8 2 4 7 5 3 4 8 10 7 12 15
33 30 27 25 23 24 19 16 16 13 11 11 11 8 8 11 7 1 8 22 18 15 11 10 4 5 5 5 3 2 4 9 7 7 3 6 6 7 7 12 6 11 8 13 13
36 32 30 27 25 23 23 21 14 14 11 12 11 7 9 4 5 1 7 9 21 17 14 6 5 4 5 5 4 1 4 8 10 8 7 3 7 6 10 15 8 4 10 15 15
40 37 33 30 26 25 22 21 20 15 13 13 12 7 7 8 4 8 7 7 20 18 12 9 6 4 4 4 5 3 3 5 3 7 7 6 9 4 5 7 7 6 11 13 16
40 40 37 33 28 26 23 21 20 18 15 14 13 9 5 8 4 3 9 5 21 19 4 4 8 3 6 2 2 1 4 4 6 3 5 7 10 6 11 5 8 9 9 8 14
31 40 40 36 32 27 24 21 18 17 16 14 11 6 5 10 20 8 6 10 15 18 13 12 8 4 1 3 3 1 0 5 5 10 6 7 14 5 7 5 11 10 9 10 11
35 36 45 40 34 29 25 22 18 15 15 13 8 5 4 7 11 21 6 6 11 8 8 9 6 2 3 4 1 4 7 6 5 11 4 7 2 7 7 6 12 9 10 11 11
33 32 47 42 38 31 25 20 14 11 11 9 3 3 3 5 9 12 14 10 4 9 4 3 3 3 4 10 16 9 6 4 5 4 5 6 9 12 13 11 12 9 8 8 12
37 36 40 46 40 35 28 15 7 3 10 5 6 3 3 4 12 10 14 13 5 5 8 6 7 17 21 12 6 12 8 12 3 6 3 11 14 17 13 11 15 13 10 10 13
35 37 35 49 44 40 38 9 16 9 7 15 1 11 4 5 6 6 18 8 7 10 12 6 21 12 6 11 15 15 6 7 2 4 5 10 16 16 15 13 16 17 14 12 11
34 35 35 47 46 44 40 29 26 20 6 6 5 5 3 7 4 12 16 9 6 11 14 9 3 18 10 11 17 21 20 9 7 1 5 9 20 13 15 19 20 18 17 19 19
30 36 38 46 46 42 33 36 28 7 4 5 10 5 5 3 4 11 25 9 7 17 9 11 19 11 17 17 14 20 14 10 9 1 9 3 13 8 7 15 17 21 20 21 21
33 37 43 54 27 25 30 41 26 3 3 6 7 9 9 8 6 7 15 8 11 8 8 6 5 22 16 17 11 8 5 12 10 8 1 8 7 4 6 12 12 19 20 21 23
30 34 44 50 26 41 35 38 17 5 7 5 9 13 13 8 5 6 6 2 2 8 15 9 2 8 7 9 15 1 1 3 3 4 9 15 8 14 11 14 8 13 15 17 19
30 29 42 30 22 52 48 16 7 6 3 10 11 17 21 15 13 8 11 13 10 7 12 11 17 2 6 12 11 15 6 3 3 5 12 9 11 22 15 6 9 11 11 10 10
35 29 31 40 39 52 38 11 8 8 9 4 10 16 20 8 18 15 10 10 17 9 3 13 10 16 6 16 13 17 13 4 5 7 4 2 12 6 11 13 16 15 14 8 10
31 28 26 24 38 48 20 17 12 10 8 13 17 18 14 12 7 14 21 16 10 11 7 11 11 9 9 4 7 5 13 5 4 2 0 4 9 8 12 11 12 17 9 15 13
27 16 13 38 43 25 15 18 6 6 9 11 7 11 16 17 8 19 14 10 15 17 16 2 5 9 9 8 10 7 9 4 3 3 4 7 6 12 12 12 10 15 11 9 10
17 3 16 43 36 7 14 7 6 4 3 6 6 7 7 13 14 16 8 5 16 15 19 7 3 2 5 13 17 6 5 5 3 3 4 7 8 7 15 14 9 8 10 8 10
4 4 25 40 9 4 9 10 6 7 2 4 6 5 9 10 13 12 12 5 7 13 12 6 2 6 18 2 17 17 14 13 6 9 4 3 21 2 9 7 6 10 12 6 9
3 3 21 23 10 8 11 4 5 5 3 4 4 3 2 11 9 7 10 7 6 12 12 9 4 2 2 2 2 9 16 16 17 2 14 7 20 6 6 7 5 8 12 10 7
3 5 4 4 0 14 21 8 9 3 2 2 5 4 7 10 3 14 7 2 8 7 6 12 5 5 6 2 4 9 15 14 16 8 18 14 33 20 12 6 9 7 7 9 7
0 2 4 6 7 11 23 13 15 8 2 5 3 5 9 7 3 7 5 3 4 7 4 6 4 7 11 3 3 1 16 19 19 20 11 31 30 23 18 13 17 7 6 9 9
2 2 2 6 17 16 15 14 16 4 5 5 9 6 3 7 6 6 8 4 4 3 9 4 2 2 2 4 10 7 9 17 25 25 23 30 29 27 13 12 20 15 7 9 11
1 2 3 10 8 13 11 19 13 11 3 3 11 6 8 4 6 7 4 6 4 7 11 6 5 2 3 5 4 5 20 17 17 23 25 24 39 36 19 19 21 23 20 8 9
Wind_Direction
228 228 226 228 224 217 218 226 229 231 231 230 247 245 246 222 232 228 226 219 226 235 276 220 255 28 42 70 284 113 59 322 303 259 281 9 359 344 315 132 234 190 189 290 170
229 227 227 223 226 220 216 218 229 229 227 227 230 242 233 214 229 237 234 228 235 224 208 190 166 106 40 92 316 120 146 206 315 341 320 309 307 305 330 266 268 244 234 152 165
226 226 225 223 220 223 215 217 220 229 223 220 222 227 215 193 261 237 239 232 219 211 207 190 141 119 109 108 201 237 175 181 237 259 285 285 313 307 254 250 230 215 181 162 167
226 226 224 224 218 219 218 217 217 217 226 215 211 215 204 171 219 284 252 226 206 200 171 143 126 150 141 196 164 229 242 180 188 187 260 280 312 302 213 252 317 252 162 165 178
228 227 227 225 222 216 218 217 212 211 223 214 205 208 185 208 249 311 3 195 203 189 177 148 148 144 176 176 109 288 231 221 223 176 225 268 253 240 270 274 278 288 169 180 192
228 227 225 222 221 219 216 213 215 212 219 213 204 205 207 235 234 280 301 179 190 187 190 154 184 169 125 157 191 234 258 285 227 204 185 225 259 50 273 339 261 199 210 195 196
222 224 223 220 218 218 215 210 214 213 212 212 211 207 238 225 234 290 238 228 200 191 149 157 139 137 131 112 201 4 290 258 233 259 227 180 254 214 247 268 251 240 239 224 214
234 219 223 219 215 212 211 208 205 205 204 209 197 168 240 240 246 275 220 181 192 197 201 179 132 93 70 110 69 212 93 247 219 183 237 150 252 257 254 247 258 250 235 235 220
234 231 217 219 211 207 204 207 201 200 196 193 177 168 223 219 206 229 216 165 167 168 185 169 131 128 115 164 164 211 235 226 313 194 143 204 231 217 238 246 256 251 238 231 239
232 229 205 216 210 202 194 194 192 183 184 173 205 166 236 198 173 193 199 186 138 132 106 164 152 187 192 197 218 207 226 226 227 219 228 244 255 255 252 257 255 256 259 243 239
226 227 216 209 207 196 178 153 142 191 195 186 162 222 117 140 150 168 174 148 121 187 183 189 197 217 210 219 243 265 214 232 181 207 175 247 250 257 248 244 251 248 243 242 236
226 224 221 203 197 187 177 182 191 161 174 234 291 197 105 165 166 172 171 171 188 204 189 197 226 224 202 215 237 262 248 233 286 185 208 267 262 250 248 246 234 246 245 239 236
225 222 217 190 189 176 183 186 176 152 125 201 211 205 174 168 208 180 179 181 186 215 209 220 281 207 211 217 220 234 251 247 249 306 235 289 280 245 251 244 243 244 237 242 237
223 223 216 206 185 175 189 184 173 187 90 215 189 233 164 143 260 169 191 191 206 214 222 238 232 190 210 229 220 240 226 249 246 180 271 152 286 250 266 242 222 238 231 232 235
225 228 218 202 188 176 179 179 177 115 126 204 169 158 151 177 132 191 188 198 199 186 170 205 227 206 217 216 213 227 192 206 202 202 301 245 275 265 206 256 241 242 235 226 228
220 227 209 197 165 175 171 173 168 95 230 168 150 174 168 178 179 143 174 254 146 207 230 217 246 189 216 194 210 177 229 162 194 201 245 240 227 264 237 240 235 242 237 224 228
218 221 225 223 180 165 163 159 176 157 278 163 181 185 184 186 197 158 185 197 190 199 222 220 225 186 172 220 213 193 177 228 177 193 236 184 208 245 289 266 233 236 240 228 224
218 217 221 229 155 154 158 172 190 189 203 167 152 181 191 152 206 195 184 215 210 225 203 212 213 192 176 211 213 213 213 219 229 206 258 124 234 237 237 269 257 250 252 253 222
208 211 213 196 160 165 163 187 191 169 174 147 129 163 196 201 161 190 210 211 196 218 204 200 222 175 172 165 154 163 212 184 141 28 188 232 284 277 252 260 262 261 247 251 251
198 195 223 172 161 177 181 163 185 163 132 142 138 171 183 186 168 182 181 219 224 182 226 234 193 198 191 181 211 215 143 169 180 218 248 243 251 245 309 290 247 252 253 259 261
218 154 166 167 169 172 196 183 133 218 135 138 141 143 180 178 185 186 201 201 195 185 184 207 212 172 150 204 194 156 198 209 146 200 224 277 263 209 224 256 279 287 268 267 275
141 181 168 146 167 191 179 155 141 147 250 105 103 114 171 156 175 189 203 192 170 157 182 153 242 189 211 356 216 217 213 197 218 222 259 286 263 187 231 275 320 293 290 285 270
198 114 169 163 185 166 147 91 109 140 161 157 115 143 167 160 175 193 177 180 142 168 172 170 206 151 118 322 308 217 218 220 227 355 230 228 262 215 262 282 291 281 303 310 324
187 140 149 155 269 153 155 144 142 91 120 118 115 95 109 163 335 185 176 144 164 183 143 151 175 210 221 207 135 207 216 218 222 225 248 243 267 265 272 257 293 282 284 308 311
61 172 120 153 167 147 166 147 150 148 208 195 60 175 141 151 110 159 142 128 135 172 152 186 224 222 226 208 10 330 216 217 229 240 235 252 255 258 254 273 297 252 305 303 310
119 147 80 122 144 149 165 174 157 123 140 207 157 136 85 142 178 149 147 155 174 159 185 171 164 170 258 265 241 242 249 228 224 231 238 254 273 250 262 295 291 278 263 277 291
70 332 84 137 143 154 180 170 163 138 50 170 124 112 84 134 123 107 72 96 117 150 178 147 140 127 255 204 177 247 229 226 236 229 225 240 247 263 262 256 258 275 290 245 253